Dewpoint
52 44 43 42 32 26 19 21 23 24 24 25 26 26 25 25 22 25 47 51 55 55 60 69 72 72 72 72 72 72 71 70 70 71 69 70 70 70 70 70 71 70 69 69 68 68 67 66 64
39 39 41 31 25 16 13 20 22 24 25 26 26 27 26 22 26 31 42 53 56 55 60 66 71 72 72 72 72 72 71 70 70 71 69 69 69 68 67 69 70 69 68 67 66 65 63 62 60
42 37 31 27 23 16 17 20 21 21 25 26 25 27 25 22 28 34 48 53 56 55 61 65 71 72 72 72 72 72 71 70 70 71 70 69 68 66 64 65 66 67 66 65 63 62 61 59 58
37 33 29 22 19 18 18 17 20 22 25 26 25 23 24 26 30 39 49 54 56 54 60 68 71 72 72 72 72 72 70 70 70 71 70 68 66 65 63 63 65 65 65 63 60 59 59 57 55
34 28 22 21 18 17 16 18 23 24 23 23 24 21 22 28 32 39 48 54 56 55 59 65 70 71 71 72 72 72 71 70 71 71 69 67 66 64 63 63 64 64 63 60 58 58 56 55 52
28 26 19 16 13 14 18 25 24 23 22 22 22 22 22 32 32 36 45 53 56 57 61 62 67 69 70 71 72 72 72 71 71 70 68 68 66 64 63 62 63 62 61 58 58 56 54 53 51
29 26 19 18 15 16 19 24 22 20 17 17 23 18 18 27 33 39 45 51 55 57 61 63 66 68 67 69 70 70 71 71 70 68 67 67 66 63 63 62 62 60 58 58 57 55 54 52 49
30 26 21 18 14 14 19 22 23 19 16 23 23 18 17 33 39 44 48 50 54 58 61 62 63 65 66 67 66 67 68 68 68 66 65 64 63 63 62 61 61 58 57 56 55 54 53 50 47
33 23 19 18 16 13 20 20 21 22 21 19 22 24 24 31 39 43 46 50 53 56 60 62 62 63 63 63 63 64 66 66 66 64 62 61 61 60 58 58 60 59 58 55 54 53 51 48 44
30 25 20 19 16 15 16 17 19 20 18 16 17 20 24 24 30 35 37 40 47 52 56 60 61 62 62 61 62 63 64 66 66 65 63 62 61 57 54 55 59 60 58 55 53 51 48 44 32
29 24 18 20 21 21 19 19 19 21 20 15 13 14 17 21 23 28 30 33 37 42 50 56 59 60 61 61 61 62 63 64 64 64 63 62 60 56 54 55 55 56 54 50 50 45 34 34 33
30 24 26 26 25 27 23 21 20 23 22 22 22 21 21 22 24 24 26 29 32 37 41 50 55 58 60 60 60 61 61 63 63 63 63 62 59 56 54 53 54 56 52 50 48 41 41 36 32
31 27 23 25 26 29 28 25 23 22 21 20 21 20 20 22 24 26 27 30 33 35 38 44 54 56 57 60 60 60 60 61 62 63 62 60 57 55 52 52 53 53 51 47 44 38 37 37 31
25 28 26 24 24 25 25 24 22 19 18 17 17 17 16 17 18 22 25 27 31 35 36 41 47 55 55 57 59 59 59 60 61 60 60 59 56 53 51 51 51 51 48 44 37 37 36 35 34
26 23 21 20 19 21 24 21 20 18 16 14 15 14 15 16 16 18 20 24 26 30 35 40 45 51 54 55 57 58 58 58 59 59 58 57 55 52 49 49 49 49 45 40 37 35 34 32 30
22 21 20 19 20 22 23 17 17 17 16 17 17 16 17 17 17 20 23 25 26 28 30 33 39 47 53 54 55 56 56 57 58 58 56 55 54 50 47 46 47 45 40 35 34 33 32 30 28
22 19 19 18 19 20 23 19 20 20 19 18 18 18 18 19 21 22 24 26 27 28 29 31 35 42 50 54 54 55 56 56 56 56 55 54 52 49 45 44 44 41 36 33 31 30 30 30 28
20 19 19 19 21 20 20 19 19 19 19 19 19 19 20 21 20 25 27 30 30 31 32 32 33 36 46 51 54 54 55 55 54 54 53 52 51 48 44 42 41 38 35 32 32 32 31 31 30
20 20 19 20 21 22 21 19 19 21 20 19 19 18 20 20 24 27 29 30 30 32 32 31 32 34 40 47 50 52 53 53 54 54 53 51 49 47 44 40 39 36 34 33 33 33 32 31 29
21 20 20 22 20 21 21 21 22 22 20 19 18 19 23 24 26 28 30 31 30 30 30 31 32 33 36 44 47 48 49 51 51 52 52 50 49 46 42 40 37 36 33 33 33 32 31 32 29
21 21 21 21 21 23 21 20 22 22 20 18 18 22 24 25 27 30 31 31 32 32 31 29 30 31 34 40 43 45 46 43 45 48 49 48 47 46 45 40 37 36 33 32 34 33 32 30 31
21 22 22 22 22 21 22 18 20 19 18 19 24 27 26 28 29 31 31 30 31 32 33 30 30 29 31 35 37 40 42 39 40 40 44 46 46 45 44 41 38 37 34 32 35 32 32 33 29
21 22 21 22 24 24 22 18 17 18 17 17 26 27 28 29 29 29 31 31 31 33 33 32 31 30 29 30 33 34 34 36 37 36 36 39 42 43 44 42 39 37 34 33 34 31 32 31 31
23 22 22 24 24 22 22 19 15 14 16 20 26 27 28 28 29 29 30 30 29 31 31 32 30 30 31 30 29 29 30 31 33 34 34 35 37 40 40 41 40 38 35 33 33 33 32 31 30
23 21 23 24 25 23 20 18 17 17 22 23 26 25 26 28 28 29 29 28 29 29 29 27 28 29 30 31 30 31 30 29 28 29 31 33 34 36 37 38 38 37 36 34 33 34 31 31 30
27 25 27 24 23 23 26 22 20 26 27 26 25 24 25 25 26 27 27 27 26 28 27 27 26 25 27 29 30 32 31 30 29 29 30 31 32 34 36 35 36 36 35 33 31 32 32 31 31
24 22 26 26 29 26 22 22 21 28 26 24 23 22 22 23 24 24 25 27 26 26 25 24 24 24 23 24 28 29 29 30 31 31 31 31 32 29 32 34 34 34 34 33 32 31 31 30 31
26 32 32 29 25 23 17 16 16 20 25 24 22 21 21 21 21 22 21 26 25 24 25 23 22 22 22 22 24 25 25 26 26 29 32 32 31 31 31 33 32 33 33 33 32 31 31 30 29
23 22 23 21 22 21 19 17 19 25 27 24 21 19 20 19 18 18 21 19 23 20 21 22 21 20 21 21 23 26 25 23 22 23 25 29 32 31 30 30 31 32 32 32 31 30 29 28 28
30 26 25 24 25 24 24 26 27 27 26 24 19 18 18 19 10 10 20 13 13 15 16 16 16 19 21 18 20 24 24 26 24 21 22 27 27 30 31 30 29 30 30 30 30 29 28 28 27
Lifted_Index
7 7 6 6 5 5 5 5 5 5 6 6 6 6 6 6 6 5 4 2 1 0 -1 -3 -5 -5 -5 -5 -5 -5 -4 -4 -5 -4 -4 -4 -4 -4 -3 -4 -4 -3 -3 -2 -1 -0 1 3 3
8 7 7 6 5 5 5 5 5 6 6 6 7 6 6 6 6 5 4 2 1 0 -1 -3 -5 -5 -5 -5 -5 -5 -4 -4 -4 -4 -4 -4 -4 -3 -2 -3 -3 -3 -2 -1 0 1 3 4 5
8 7 7 6 5 5 5 6 6 6 6 7 7 6 6 6 6 5 4 2 1 1 -1 -3 -4 -5 -5 -5 -5 -5 -4 -4 -4 -4 -4 -3 -3 -2 -1 -1 -1 -1 -1 1 2 3 5 6 7
7 7 6 5 5 5 6 6 6 6 6 6 6 6 6 7 6 5 4 2 1 1 -1 -3 -4 -5 -5 -5 -5 -5 -4 -4 -4 -4 -4 -3 -2 -1 0 0 -0 -0 1 2 4 5 6 7 8
7 7 5 5 5 5 6 6 6 6 6 6 6 6 6 7 7 6 4 2 1 1 -0 -2 -3 -4 -4 -5 -5 -5 -4 -4 -4 -4 -3 -2 -1 0 1 1 1 1 2 4 5 6 8 9 10
7 6 5 4 4 5 6 6 6 6 6 6 6 6 6 7 7 6 5 2 1 0 -0 -1 -2 -3 -4 -4 -5 -5 -4 -4 -4 -3 -2 -1 0 1 2 2 2 3 4 5 6 8 9 10 11
7 6 4 4 4 5 6 6 6 6 5 6 6 6 6 7 7 6 5 3 1 0 -0 -1 -2 -3 -3 -4 -4 -4 -4 -4 -3 -2 -1 0 1 2 3 3 4 5 6 7 8 9 10 11 12
6 5 4 3 4 5 6 6 6 6 5 6 6 6 6 7 7 6 5 3 2 0 -1 -1 -2 -2 -2 -2 -3 -3 -3 -3 -2 -1 -0 1 2 3 4 5 5 6 7 8 9 10 11 13 14
6 5 4 4 4 5 6 6 6 6 5 5 6 6 6 7 7 6 5 4 2 1 -0 -1 -1 -1 -2 -2 -2 -2 -2 -2 -2 -1 -0 1 2 4 5 6 6 7 7 9 10 11 13 14 15
6 5 4 5 5 6 6 6 6 6 5 5 5 6 7 7 7 6 5 5 4 2 1 -0 -1 -1 -1 -1 -1 -1 -1 -1 -1 -1 -0 1 2 4 6 7 7 7 8 9 11 12 14 15 16
6 5 6 6 6 6 6 6 6 6 5 5 6 6 7 7 7 6 6 6 5 4 3 1 1 0 -0 -0 -0 -0 -0 -0 -0 -0 -0 1 3 5 6 7 7 8 9 10 12 14 16 16 16
6 6 6 6 7 6 6 6 6 6 6 6 6 7 7 7 7 7 7 7 6 6 5 3 2 1 1 1 0 0 0 0 0 -0 0 2 3 6 7 7 7 8 9 11 13 15 16 16 16
6 6 7 7 7 7 7 6 6 6 7 7 7 7 7 7 7 7 7 7 7 7 6 5 3 2 2 1 1 1 1 1 1 1 1 2 4 6 8 8 8 9 10 12 14 15 16 16 15
7 7 7 7 7 7 7 6 6 7 7 8 7 7 7 8 8 8 8 8 8 8 7 6 5 4 3 2 2 1 1 1 1 1 2 4 5 7 8 9 9 10 12 14 15 16 16 15 15
7 7 6 7 7 8 7 6 6 7 7 7 7 7 7 8 9 9 9 9 9 9 8 8 6 5 4 3 3 2 2 2 2 2 3 4 6 8 9 10 10 11 13 15 16 16 16 16 15
6 6 6 6 7 8 7 6 6 7 7 7 6 7 8 8 9 9 10 10 9 9 9 9 8 7 5 4 3 3 3 3 3 3 4 5 7 8 10 11 11 13 14 15 15 15 15 15 15
5 5 5 6 7 8 8 7 7 7 7 6 6 7 8 8 9 10 10 10 10 10 10 10 10 8 7 5 4 4 4 4 4 4 5 6 7 8 10 11 12 13 14 15 15 15 15 15 15
5 5 5 6 6 7 8 7 7 7 6 6 6 7 8 9 9 10 10 10 10 10 10 10 10 10 9 7 6 5 5 5 5 5 6 6 7 8 9 11 12 13 14 14 14 15 15 15 15
5 5 6 6 6 6 7 7 7 6 6 6 7 8 8 9 9 9 9 9 9 9 9 10 10 11 10 9 8 7 6 6 6 7 7 7 7 8 9 10 11 13 13 14 15 15 15 15 15
5 5 5 6 6 6 6 6 6 6 6 6 7 8 9 9 9 9 9 9 9 9 9 10 10 11 11 11 9 9 8 8 8 8 8 8 8 8 8 9 10 11 13 14 15 15 15 15 15
5 5 5 5 5 5 6 5 5 6 6 7 8 8 8 8 8 9 9 9 9 10 10 10 11 11 12 12 11 10 10 10 10 10 10 10 10 9 9 9 9 10 11 13 14 15 15 15 15
4 4 4 4 4 5 5 5 5 5 6 7 7 8 7 7 7 8 9 9 9 10 10 11 11 11 12 12 12 12 11 12 12 12 12 12 12 11 11 10 9 10 10 12 13 15 16 16 16
4 4 4 4 4 4 4 4 4 5 5 6 7 6 6 6 7 7 8 8 9 10 10 11 11 11 12 12 12 12 12 12 13 14 14 14 14 14 13 12 11 10 10 10 12 13 15 16 16
4 3 3 3 3 3 3 4 5 5 5 6 6 5 5 5 6 7 7 7 8 9 9 10 10 10 11 11 12 12 12 12 13 13 13 14 14 14 14 14 13 11 10 10 11 12 14 15 16
3 3 2 2 2 2 3 4 4 5 5 5 5 5 5 5 6 6 7 7 7 8 8 9 9 9 10 10 11 12 12 12 12 13 13 13 14 14 15 15 14 13 12 10 10 11 13 14 15
3 2 2 1 1 2 3 4 4 5 5 5 5 5 5 6 6 6 7 7 7 8 8 9 9 9 10 10 10 11 11 12 12 13 13 13 14 14 15 15 15 15 14 12 11 11 12 13 15
2 2 2 1 1 2 2 3 4 4 4 4 4 5 5 6 6 6 6 7 8 8 9 10 10 10 10 10 10 10 11 11 12 13 13 13 14 14 14 14 15 15 15 14 13 11 11 13 14
2 2 2 1 1 1 2 2 3 3 3 3 3 4 4 5 5 6 7 8 9 9 10 11 12 12 12 12 11 11 11 11 12 12 13 13 14 14 13 13 13 14 14 14 14 13 12 12 13
2 2 2 1 1 1 1 1 2 2 2 2 2 3 3 4 5 6 7 9 10 10 11 12 13 13 14 14 14 13 13 13 13 13 13 13 13 13 13 12 12 12 13 13 13 13 13 13 13
2 2 2 1 1 0 0 1 1 2 2 2 2 2 3 3 4 6 8 10 11 11 12 13 14 14 14 15 15 15 15 15 15 14 14 13 13 13 13 12 11 11 11 12 13 13 13 13 13